Location: Venise Bay
(45.0825°N, 73.1481°W)
Time: 06:01:08
(UTC-04:00)

ISS - Visible Passes

Search period start: 27 September 2022 00:00
Search period end: 07 October 2022 00:00
Orbit: 414 x 417 km, 51.6° (Epoch: 27 September)

Date Brightness Start Highest point End Pass type
(mag) Time Alt. Az. Time Alt. Az. Time Alt. Az.
27 Sep -2.1 19:09:45 10° NW 19:12:39 26° N 19:15:32 10° ENE visible
27 Sep -2.6 20:46:33 10° NW 20:49:01 40° NNW 20:49:01 40° NNW visible
28 Sep -2.9 19:57:53 10° NW 20:01:05 39° NNE 20:02:11 29° ENE visible
28 Sep -0.4 21:34:38 10° WNW 21:35:04 13° WNW 21:35:04 13° WNW visible
29 Sep -2.5 19:09:11 10° NW 19:12:14 31° NNE 19:15:18 10° ENE visible
29 Sep -2.6 20:45:50 10° WNW 20:48:15 43° WNW 20:48:15 43° WNW visible
30 Sep -3.8 19:57:06 10° WNW 20:00:28 72° NNE 20:01:28 41° E visible
01 Oct -3.3 19:08:22 10° NW 19:11:39 49° NNE 19:14:45 11° E visible
01 Oct -1.9 20:45:17 10° WNW 20:47:38 27° WSW 20:47:38 27° WSW visible
02 Oct -3.1 19:56:20 10° WNW 19:59:35 49° SW 20:00:59 28° SSE visible
03 Oct -3.7 19:07:28 10° WNW 19:10:51 81° SSW 19:14:11 10° SE visible
03 Oct -0.9 20:45:37 10° WSW 20:47:04 12° SW 20:47:18 12° SW visible
04 Oct -1.4 19:55:54 10° W 19:58:27 20° SW 20:00:51 11° S visible
05 Oct -2.1 19:06:42 10° WNW 19:09:46 33° SW 19:12:48 10° SSE visible
